Date String (YYYY-MM-DD hh:mm:ss) UTC,Instrument flags,Ambient pressure (hPa),Sample flow (lpm),Bypass flow (lpm),Sample temperature (°C),Ambient temperature (°C),ASC tube jacket temperature (°C),LED temperature (°C),Box temperature (°C),Sample RH (%),Span deviation,Mass concentration (μg/m³),Mass concentration (μg/m³),Mass concentration (μg/m³)
DateTimeUTC,F1_M11,P_M11,Q1_M11,Q2_M11,T1_M11,T2_M11,T3_M11,T4_M11,T5_M11,U1_M11,ZSPAN_M11,X2_M11,X0_M11,X1_M11
2022-12-04 04:00:00,,0828.9,5.00,0.00,23.3,21.9,00.0,32.2,25.1,10.9,0000.0,0006.25,0016.95,0004.87
2022-12-04 04:01:00,,0828.9,5.00,0.00,23.3,21.9,00.0,32.2,25.1,10.7,0000.0,0006.26,0017.67,0004.83
2022-12-04 04:02:00,,0829.0,5.00,0.00,23.3,21.9,00.0,32.2,25.1,10.6,0000.0,0006.27,0017.90,0004.79
2022-12-04 04:03:00,,0829.0,5.01,0.00,23.3,21.9,00.0,32.2,25.1,10.5,0000.0,0006.29,0017.00,0004.76
2022-12-04 04:04:00,,0829.0,5.00,0.00,23.3,21.9,00.0,32.2,25.1,10.5,0000.0,0006.32,0017.29,0004.72
2022-12-04 04:05:00,,0829.0,4.99,0.00,23.3,21.9,00.0,32.2,25.1,10.5,0000.0,0006.38,0018.77,0004.68
2022-12-04 04:06:00,,0828.9,4.99,0.00,23.3,21.9,00.0,32.2,25.1,10.4,0000.0,0006.45,0019.51,0004.66
2022-12-04 04:07:00,,0828.9,5.01,0.00,23.3,21.9,00.0,32.2,25.1,10.3,0000.0,0006.48,0019.90,0004.63
2022-12-04 04:08:00,,0828.9,5.00,0.00,23.3,21.9,00.0,32.2,25.1,10.1,0000.0,0006.47,0019.77,0004.61
2022-12-04 04:09:00,,0828.9,4.99,0.00,23.3,21.9,00.0,32.2,25.1,10.0,0000.0,0006.40,0019.90,0004.58
2022-12-04 04:10:00,,0829.0,5.01,0.00,23.3,21.9,00.0,32.2,25.1,10.0,0000.0,0006.41,0020.57,0004.54
2022-12-04 04:11:00,,0829.0,5.02,0.00,23.3,21.9,00.0,32.2,25.1,10.2,0000.0,0006.43,0021.00,0004.50
2022-12-04 04:12:00,,0829.0,5.00,0.00,23.2,21.9,00.0,32.2,25.1,10.4,0000.0,0006.46,0022.02,0004.48
2022-12-04 04:13:00,,0828.9,5.00,0.00,23.2,21.9,00.0,32.2,25.0,10.3,0000.0,0006.48,0021.35,0004.47
2022-12-04 04:14:00,,0828.9,4.99,0.00,23.2,21.9,00.0,32.2,25.1,10.2,0000.0,0006.46,0022.30,0004.45
2022-12-04 04:15:00,,0828.9,5.00,0.00,23.2,21.8,00.0,32.2,25.1,10.1,0000.0,0006.41,0023.72,0004.43
2022-12-04 04:16:00,,0829.0,5.00,0.00,23.2,21.8,00.0,32.2,25.1,10.1,0000.0,0006.31,0022.86,0004.39
2022-12-04 04:17:00,,0829.1,5.00,0.00,23.2,21.8,00.0,32.2,25.1,10.0,0000.0,0006.26,0021.84,0004.36
2022-12-04 04:18:00,,0829.3,5.00,0.00,23.2,21.8,00.0,32.2,25.1,10.1,0000.0,0006.25,0021.46,0004.33
2022-12-04 04:19:00,,0829.3,5.00,0.00,23.2,21.8,00.0,32.2,25.1,10.1,0000.0,0006.20,0021.79,0004.30
2022-12-04 04:20:00,,0829.2,4.99,0.00,23.2,21.8,00.0,32.2,25.1,10.1,0000.0,0006.22,0021.91,0004.28
2022-12-04 04:21:00,,0829.1,5.00,0.00,23.2,21.8,00.0,32.2,25.0,10.1,0000.0,0006.21,0021.30,0004.27
2022-12-04 04:22:00,,0829.1,5.01,0.00,23.2,21.8,00.0,32.1,25.0,10.1,0000.0,0006.14,0020.87,0004.26
2022-12-04 04:23:00,,0829.1,5.00,0.00,23.2,21.8,00.0,32.1,25.1,10.1,0000.0,0006.02,0019.22,0004.24
2022-12-04 04:24:00,,0829.2,4.99,0.00,23.2,21.8,00.0,32.1,25.0,10.1,0000.0,0005.96,0019.50,0004.21
2022-12-04 04:25:00,,0829.2,4.99,0.00,23.2,21.8,00.0,32.1,24.9,10.2,0000.0,0005.96,0018.94,0004.21
2022-12-04 04:26:00,,0829.2,5.00,0.00,23.2,21.8,00.0,32.1,24.9,10.3,0000.0,0006.01,0018.17,0004.22
2022-12-04 04:27:00,,0829.3,5.01,0.00,23.2,21.7,00.0,32.1,24.9,10.4,0000.0,0006.04,0017.25,0004.23
2022-12-04 04:28:00,,0829.3,5.01,0.00,23.1,21.7,00.0,32.1,24.9,10.3,0000.0,0006.04,0017.66,0004.24
2022-12-04 04:29:00,,0829.2,4.99,0.00,23.1,21.7,00.0,32.1,24.9,10.2,0000.0,0006.03,0017.94,0004.27
2022-12-04 04:30:00,,0829.1,4.99,0.00,23.1,21.7,00.0,32.1,24.9,10.1,0000.0,0006.07,0017.78,0004.27
2022-12-04 04:31:00,,0829.1,5.00,0.00,23.1,21.7,00.0,32.1,25.0,10.2,0000.0,0006.03,0017.92,0004.26
2022-12-04 04:32:00,,0829.1,5.01,0.00,23.1,21.7,00.0,32.1,24.9,10.1,0000.0,0006.04,0018.46,0004.26
2022-12-04 04:33:00,,0829.1,5.01,0.00,23.1,21.7,00.0,32.1,25.0,10.1,0000.0,0006.05,0018.67,0004.26
2022-12-04 04:34:00,,0829.2,5.00,0.00,23.1,21.7,00.0,32.1,24.9,10.2,0000.0,0006.09,0018.96,0004.26
2022-12-04 04:35:00,,0829.3,5.00,0.00,23.1,21.7,00.0,32.1,24.9,10.2,0000.0,0006.13,0018.67,0004.25
2022-12-04 04:36:00,,0829.3,5.00,0.00,23.1,21.7,00.0,32.1,24.9,10.2,0000.0,0006.12,0018.93,0004.24
2022-12-04 04:37:00,,0829.2,4.99,0.00,23.1,21.7,00.0,32.1,24.9,10.2,0000.0,0006.12,0019.15,0004.23
2022-12-04 04:38:00,,0829.2,4.99,0.00,23.1,21.7,00.0,32.1,24.9,10.3,0000.0,0006.12,0020.36,0004.23
2022-12-04 04:39:00,,0829.2,5.01,0.00,23.1,21.6,00.0,32.1,24.9,10.4,0000.0,0006.13,0019.88,0004.22
2022-12-04 04:40:00,,0829.2,5.00,0.00,23.1,21.6,00.0,32.0,24.9,10.5,0000.0,0006.14,0019.21,0004.21
2022-12-04 04:41:00,,0829.2,5.00,0.00,23.1,21.6,00.0,32.0,24.9,10.6,0000.0,0006.14,0019.08,0004.23
2022-12-04 04:42:00,,0829.3,5.00,0.00,23.1,21.6,00.0,32.0,24.9,10.7,0000.0,0006.18,0018.84,0004.28
2022-12-04 04:43:00,,0829.2,5.00,0.00,23.1,21.7,00.0,32.0,24.9,10.7,0000.0,0006.15,0018.72,0004.30
2022-12-04 04:44:00,,0829.4,5.00,0.00,23.1,21.7,00.0,32.0,24.9,10.7,0000.0,0006.14,0018.50,0004.33
2022-12-04 04:45:00,,0829.5,4.99,0.00,23.1,21.6,00.0,32.0,24.8,10.8,0000.0,0006.21,0018.78,0004.37
2022-12-04 04:46:00,,0829.5,4.99,0.00,23.0,21.6,00.0,32.0,24.8,10.8,0000.0,0006.17,0018.46,0004.40
2022-12-04 04:47:00,,0829.4,5.00,0.00,23.0,21.6,00.0,32.0,24.7,10.9,0000.0,0006.14,0017.75,0004.44
2022-12-04 04:48:00,,0829.3,5.00,0.00,23.0,21.5,00.0,32.0,24.7,10.9,0000.0,0006.18,0017.05,0004.47
2022-12-04 04:49:00,,0829.2,5.01,0.00,23.0,21.5,00.0,32.0,24.7,10.9,0000.0,0006.20,0017.10,0004.51
2022-12-04 04:50:00,,0829.2,5.00,0.00,23.0,21.5,00.0,32.0,24.7,11.0,0000.0,0006.22,0017.87,0004.56
2022-12-04 04:51:00,,0829.4,5.00,0.00,23.0,21.5,00.0,32.0,24.7,11.0,0000.0,0006.20,0018.09,0004.61
2022-12-04 04:52:00,,0829.5,5.00,0.00,23.0,21.5,00.0,32.0,24.8,11.1,0000.0,0006.17,0018.42,0004.66
2022-12-04 04:53:00,,0829.5,5.00,0.00,23.0,21.5,00.0,32.0,24.8,11.2,0000.0,0006.21,0019.21,0004.69
2022-12-04 04:54:00,,0829.5,5.00,0.00,23.0,21.5,00.0,32.0,24.8,11.1,0000.0,0006.22,0019.92,0004.72
2022-12-04 04:55:00,,0829.4,5.00,0.00,23.0,21.6,00.0,32.0,24.9,11.1,0000.0,0006.25,0020.88,0004.75
2022-12-04 04:56:00,,0829.4,5.00,0.00,23.0,21.6,00.0,32.0,24.9,11.5,0000.0,0006.20,0021.15,0004.78
2022-12-04 04:57:00,,0829.2,4.99,0.00,23.0,21.6,00.0,31.9,24.9,11.7,0000.0,0006.22,0020.99,0004.82
2022-12-04 04:58:00,,0829.2,4.99,0.00,23.0,21.6,00.0,31.9,24.9,11.4,0000.0,0006.28,0021.52,0004.85
2022-12-04 04:59:00,,0829.1,5.00,0.00,23.0,21.6,00.0,31.9,24.8,11.7,0000.0,0006.24,0021.14,0004.87
